Temperature
24 25 26 26 26 26 24 22 22 22 22 22 21 21 21 21 21 21 21 21 21 21 21 20 20 20 20 19 19 19 19 18 18 18 17 17 17 17 17 17 17 16 16 16
23 25 25 25 26 26 25 24 23 22 22 21 21 21 21 21 21 21 21 21 21 21 20 20 20 20 19 19 19 19 18 18 18 17 17 17 17 17 17 16 16 16 16 16
21 23 24 23 24 25 24 23 23 22 21 21 21 21 21 21 21 21 21 21 21 20 20 20 20 19 19 19 18 18 18 18 17 17 17 17 17 16 16 16 16 16 15 15
20 22 23 22 24 25 24 23 22 22 21 21 21 21 22 22 21 21 21 21 21 20 20 20 19 19 19 18 18 18 17 17 17 17 17 16 16 16 16 16 15 15 15 15
19 20 21 23 24 24 23 22 22 21 21 21 21 21 21 21 21 21 21 21 20 20 20 20 19 19 18 18 17 17 17 17 16 16 16 16 16 15 15 15 15 15 15 14
19 21 21 22 23 24 22 21 21 21 20 20 20 18 18 21 20 20 20 20 20 20 19 19 19 18 18 17 17 17 17 17 16 16 16 15 15 15 15 15 15 14 14 14
19 19 20 21 22 23 21 20 21 21 21 21 20 19 20 20 20 20 20 20 20 19 19 19 18 18 18 17 17 16 16 16 16 16 15 15 15 15 14 14 14 14 14 14
18 19 19 21 21 20 19 20 21 21 21 21 21 20 20 20 20 20 19 19 19 19 19 18 18 18 17 17 16 16 16 16 15 15 15 14 14 14 14 14 14 13 13 13
17 18 19 20 20 21 21 20 21 21 21 21 20 20 20 19 19 19 19 19 18 18 18 17 17 17 17 16 16 16 15 15 15 15 14 14 14 14 14 13 13 13 13 13
17 18 19 20 20 20 21 20 21 21 21 21 20 20 19 19 19 19 18 18 18 18 18 17 17 17 16 16 16 15 15 15 14 14 14 14 14 14 13 13 13 13 13 12
16 18 18 19 20 20 20 20 20 20 20 20 20 19 19 19 18 18 18 18 17 17 17 16 16 16 16 16 15 15 15 14 14 14 14 14 13 13 13 13 13 13 12 12
16 17 17 18 19 20 20 19 19 19 19 19 19 19 18 18 18 18 17 17 17 17 16 16 16 16 16 15 15 15 14 14 14 14 13 13 13 13 13 13 12 12 12 12
19 19 19 19 19 19 19 19 19 19 19 19 18 18 18 18 17 17 17 17 17 16 16 16 16 15 15 15 15 15 14 14 14 13 13 13 13 13 12 12 12 12 12 12
19 19 19 18 18 19 19 19 19 18 18 18 18 18 18 17 17 17 16 16 16 16 16 15 15 15 15 15 14 14 14 14 13 13 13 13 13 12 12 12 12 12 12 12
19 19 18 18 18 18 18 18 18 18 18 18 17 17 17 17 16 16 16 16 16 15 15 15 15 15 14 14 14 14 13 13 13 13 13 12 12 12 12 12 11 11 11 11
18 18 18 18 18 18 18 17 17 17 17 17 17 17 16 16 16 16 16 15 15 15 15 14 14 14 14 14 13 13 13 13 12 12 12 12 12 12 12 11 11 11 11 11
17 17 17 17 17 17 17 17 17 17 16 16 16 16 16 16 16 15 15 15 15 15 14 14 14 14 13 13 13 13 13 13 12 12 12 12 11 11 11 11 11 11 10 10
17 17 17 17 17 16 16 16 16 16 16 16 16 16 15 15 15 15 14 14 14 14 14 13 13 13 13 13 13 13 13 12 12 12 12 11 11 11 11 11 10 10 10 10
17 16 16 16 16 16 16 15 15 15 15 15 15 15 15 15 14 14 14 14 13 13 13 13 13 13 13 13 12 12 12 12 12 11 11 11 11 10 10 10 10 10 10 9
16 16 16 16 16 16 15 15 15 15 14 15 15 14 14 14 14 14 13 13 13 13 13 12 12 12 12 12 12 12 12 11 11 11 11 11 10 10 10 10 10 9 9 9
15 15 15 15 15 15 15 15 15 14 14 14 14 14 14 14 13 13 13 13 13 12 12 12 12 12 12 12 12 11 11 11 11 10 10 10 10 10 9 9 9 9 9 9
15 15 15 15 14 14 14 14 14 14 14 14 13 13 13 13 13 13 13 13 12 12 12 12 12 11 11 11 11 11 11 10 10 10 10 10 9 9 9 9 9 9 8 8
14 14 14 14 14 14 14 14 14 13 13 13 13 13 13 13 12 12 12 12 12 12 12 11 11 11 11 11 11 10 10 10 10 10 9 9 9 9 9 9 9 8 8 8
14 14 14 13 13 13 13 13 13 13 13 13 13 12 12 12 12 12 12 12 11 11 11 11 11 11 11 11 10 10 10 10 9 9 9 9 9 8 8 8 8 8 8 8
13 13 13 13 13 13 13 13 13 12 12 12 12 12 12 12 12 12 11 11 11 11 11 11 11 10 10 10 10 10 10 9 9 9 9 8 8 8 8 8 8 8 8 8
13 13 13 13 13 13 12 12 12 12 12 12 11 11 11 11 11 11 11 11 11 11 10 10 10 10 10 10 10 9 9 9 9 9 8 8 8 8 8 8 8 8 7 7
12 12 12 12 12 12 12 12 12 12 11 11 11 11 11 11 11 11 10 10 10 10 10 10 10 10 10 10 9 9 9 9 8 8 8 8 8 8 7 7 7 7 7 7
Wind_Speed
5 5 3 1 3 3 2 6 7 7 6 7 7 8 7 6 7 7 8 8 7 6 4 4 3 4 4 4 3 4 4 4 4 4 3 2 2 2 2 2 2 2 2 2
3 2 1 2 3 3 2 3 4 5 3 4 5 6 7 7 8 8 9 9 8 7 6 5 4 4 4 3 3 3 4 4 4 3 3 3 2 1 1 1 2 1 2 2
3 5 4 3 4 2 3 3 6 5 6 6 7 9 10 9 8 8 9 9 9 8 7 6 6 5 5 4 3 3 3 3 3 3 3 3 2 1 2 2 1 2 2 2
0 4 2 7 4 5 5 2 2 4 5 8 8 7 6 7 8 7 7 7 7 6 6 5 4 4 4 4 4 3 3 3 2 2 3 2 2 2 2 2 2 2 3 3
2 1 3 5 4 1 4 2 2 6 6 5 6 6 2 2 4 5 6 6 5 6 6 5 5 5 5 4 3 3 2 2 2 2 2 2 2 2 2 2 2 3 2 3
3 2 3 5 6 1 6 2 3 4 6 7 6 4 2 2 3 4 4 4 5 5 5 5 5 5 5 3 3 2 2 2 2 2 3 3 3 2 2 2 2 2 2 2
3 3 4 5 5 4 4 4 3 2 5 5 4 5 4 3 4 5 5 6 6 6 5 4 5 5 4 3 2 2 2 1 1 1 2 2 2 1 1 1 0 0 1 2
3 2 4 5 3 4 4 3 1 3 4 5 5 6 6 5 5 6 6 6 6 5 4 3 4 6 4 2 2 1 1 1 0 0 1 1 1 0 0 1 1 0 1 2
4 5 4 1 3 4 5 4 3 3 5 8 7 5 5 5 5 5 5 5 5 6 5 3 3 5 4 1 1 1 2 1 0 0 0 1 1 1 0 0 1 1 1 2
2 1 1 3 4 4 4 4 3 5 6 7 7 6 5 4 4 4 3 4 4 5 5 3 2 3 3 2 2 2 1 0 1 0 0 1 0 1 1 1 1 1 2 2
1 1 3 4 3 4 4 4 4 4 5 6 7 5 4 4 4 4 4 3 3 4 4 3 2 2 2 2 3 2 1 0 0 0 1 1 1 2 2 3 4 4 3 3
4 4 3 3 1 3 5 5 4 5 3 4 5 5 5 4 3 4 4 3 3 3 4 3 2 2 2 2 3 3 2 1 1 1 1 1 1 2 3 2 3 4 5 4
4 3 3 1 2 3 4 4 4 4 3 3 3 5 5 4 3 3 3 3 3 3 3 3 2 1 1 2 2 3 2 2 1 1 1 1 0 0 2 4 4 3 3 4
1 3 2 1 1 2 3 2 3 4 3 3 4 4 4 4 3 3 3 3 3 3 3 3 2 1 2 2 2 2 2 2 1 1 1 1 1 1 1 1 2 3 4 5
0 2 3 2 1 2 3 4 4 3 2 3 4 4 5 4 3 2 2 2 3 3 2 2 2 2 2 1 2 2 2 1 1 1 1 1 1 1 1 1 1 2 3 4
1 2 2 3 2 2 3 3 2 0 2 3 2 2 2 3 3 2 2 3 4 3 1 1 1 2 1 1 1 2 2 2 1 1 0 0 1 1 1 1 1 1 2 2
3 1 1 2 1 1 2 3 3 2 2 2 2 2 2 3 3 2 1 2 3 3 2 1 1 1 0 1 1 2 2 1 1 1 1 1 1 1 1 1 1 1 2 2
5 5 5 4 3 2 2 2 3 3 3 2 1 2 3 3 4 3 2 2 2 2 0 1 1 0 1 0 1 1 1 1 1 1 1 1 1 1 1 1 1 1 1 1
3 3 3 3 3 4 3 2 2 2 2 2 3 3 3 3 4 3 3 3 2 0 2 1 1 1 0 0 0 1 1 1 1 1 1 1 0 0 0 0 0 0 0 1
3 2 3 3 4 4 3 2 2 1 1 2 4 4 3 3 3 3 3 2 2 2 2 1 1 1 1 1 0 1 1 2 1 1 1 1 1 1 0 0 0 0 1 1
3 2 2 3 2 2 3 4 3 3 2 2 4 4 3 2 3 3 3 1 2 1 1 1 1 1 1 0 1 1 1 1 1 1 1 1 1 1 1 1 1 1 1 1
1 2 2 2 2 1 0 1 3 3 2 2 2 3 3 2 1 1 1 3 3 2 1 1 1 1 1 1 1 1 1 1 1 1 0 1 1 1 1 1 0 0 0 0
1 1 1 1 2 2 1 1 2 3 3 3 3 3 2 2 2 3 2 2 2 2 1 1 1 1 2 2 1 2 1 1 1 1 1 1 1 1 1 1 1 1 1 1
1 1 1 1 2 2 1 2 2 2 3 3 3 4 4 2 1 2 2 2 2 2 1 2 1 1 2 1 2 1 1 1 2 1 1 1 1 1 1 1 1 1 1 1
1 1 1 1 1 1 2 2 1 1 2 1 1 1 2 2 3 2 2 2 2 2 1 1 1 1 1 2 2 2 2 2 2 2 2 1 1 1 1 1 1 1 1 1
1 1 0 1 1 1 1 2 2 1 2 2 1 1 1 1 2 1 1 1 1 1 1 1 1 1 1 2 2 2 2 2 2 1 1 1 1 0 1 1 1 1 1 1
1 1 1 1 1 0 1 2 2 2 2 3 2 1 1 1 1 1 1 1 0 0 1 1 1 1 1 2 2 2 2 2 2 1 1 1 1 1 1 1 1 1 1 1
Wind_Direction
221 225 197 229 240 191 159 174 174 198 186 203 183 165 164 158 147 141 146 146 143 146 161 166 159 156 162 171 178 171 166 174 189 198 194 196 206 215 223 214 220 216 215 233
335 311 315 321 284 224 191 147 152 152 195 206 157 138 142 145 147 154 159 161 162 163 163 168 170 167 162 173 180 162 169 188 191 183 189 202 209 199 219 246 258 245 234 237
298 314 16 312 270 178 126 141 152 173 204 162 140 147 159 159 153 165 168 170 173 173 176 178 181 179 173 178 175 163 174 183 185 186 197 211 215 213 232 239 239 246 252 245
267 25 239 246 267 115 113 116 140 145 155 155 156 157 158 161 162 167 165 164 172 172 171 173 169 161 162 155 154 154 165 181 189 186 202 212 201 221 235 228 226 239 247 251
131 196 266 300 319 139 128 36 75 129 139 136 117 83 62 154 152 164 163 161 166 169 163 157 154 147 134 127 133 143 165 189 200 195 201 205 213 224 222 226 249 252 247 240
144 166 224 267 308 234 104 25 339 119 132 135 114 106 237 186 137 129 130 135 139 137 130 135 141 131 124 133 137 165 193 204 210 196 190 205 211 209 218 223 240 251 266 251
169 190 243 275 313 50 105 232 294 127 140 137 142 171 176 137 120 110 111 113 117 118 118 132 137 127 130 140 180 207 197 186 200 208 196 200 198 203 209 222 246 299 288 291
149 163 246 303 44 107 194 214 113 102 117 118 122 123 123 127 118 105 102 112 118 116 113 113 126 127 131 163 211 165 122 126 129 248 201 152 144 227 203 166 164 254 295 310
173 202 237 271 129 157 153 124 126 130 133 125 118 118 123 130 122 113 117 124 126 124 117 107 116 126 131 173 154 110 81 74 101 134 186 179 168 185 218 175 209 262 268 284
64 309 336 60 80 77 93 103 119 138 134 125 128 133 130 134 129 126 129 133 127 125 121 126 129 126 140 148 134 118 119 246 251 165 260 296 233 192 197 212 216 249 265 272
54 309 21 14 37 82 82 88 92 98 116 123 126 134 138 129 123 123 122 118 126 135 140 158 154 140 157 159 138 130 146 218 270 287 232 249 271 239 229 230 213 213 237 240
213 227 178 246 321 89 99 105 110 96 84 110 125 130 120 119 129 130 127 118 120 133 144 164 164 161 190 182 156 151 171 200 226 262 252 233 314 335 334 301 271 242 236 231
200 200 178 204 33 56 83 100 108 110 121 129 127 133 130 134 141 128 123 122 143 158 160 163 158 159 208 183 161 168 189 206 223 254 252 272 305 323 323 336 341 321 289 274
165 102 62 32 62 67 83 84 86 87 99 127 129 124 123 119 118 127 148 167 163 154 151 153 149 188 240 196 169 189 199 197 189 215 225 227 239 252 267 286 315 325 317 300
291 151 179 184 92 79 90 89 73 65 86 98 113 119 121 119 131 170 186 168 136 130 139 143 155 239 266 199 178 197 198 204 202 201 211 216 237 267 299 292 284 296 316 330
135 95 107 105 102 107 111 109 103 153 139 122 105 117 147 151 153 159 166 154 143 150 163 152 197 256 258 191 196 202 200 192 174 169 191 263 278 259 262 278 293 295 304 305
122 150 167 161 148 138 145 151 152 166 151 141 174 170 145 129 126 133 141 140 142 152 164 177 222 266 342 140 183 199 198 194 164 139 185 218 229 255 253 233 243 261 282 295
176 183 179 178 174 152 136 137 137 132 149 178 190 139 136 147 157 159 159 131 99 75 343 244 199 49 46 104 190 199 183 177 164 179 193 214 245 256 264 264 259 265 306 341
135 136 139 147 152 145 145 149 151 132 137 147 146 157 168 168 168 165 155 127 112 65 302 301 127 118 21 328 58 163 163 151 151 167 173 175 197 348 321 305 326 50 43 37
109 112 118 116 120 132 139 152 142 118 139 151 143 149 155 166 163 148 134 143 202 214 228 217 163 189 237 256 60 148 157 160 166 185 181 171 162 141 68 35 20 14 60 71
112 110 114 114 120 144 161 160 148 152 176 159 150 159 168 171 150 139 130 146 268 227 196 193 201 246 264 220 137 136 141 146 147 162 170 159 143 130 115 95 70 65 57 43
109 133 133 131 132 141 183 133 127 135 139 125 138 145 138 132 132 131 160 192 215 200 187 221 232 246 239 146 135 132 131 138 137 132 133 141 143 149 153 149 153 192 202 260
129 138 139 151 154 148 125 134 143 147 164 177 177 172 169 184 180 168 217 240 204 176 184 231 225 183 136 123 121 126 145 145 138 126 125 133 146 155 173 200 217 215 208 228
88 86 82 99 105 111 147 208 206 190 189 187 182 179 169 165 209 218 200 205 187 178 193 221 200 158 134 127 127 140 156 150 143 138 141 145 153 177 209 224 226 217 205 206
77 90 78 85 116 179 204 200 173 158 134 123 137 163 165 172 182 197 193 191 183 159 161 183 137 143 148 142 141 147 154 152 154 157 171 177 190 220 247 236 205 193 191 206
61 26 318 249 205 191 178 147 141 135 115 102 82 84 106 124 141 152 156 191 189 161 161 188 194 147 138 144 148 146 137 125 123 137 173 178 177 189 247 256 250 192 186 192
36 27 21 13 2 141 158 151 147 156 157 151 158 188 182 177 154 140 146 175 183 246 227 208 194 175 154 142 139 138 142 150 157 167 184 200 217 214 220 234 237 212 197 189
Height
1470 1465 1464 1466 1466 1466 1472 1479 1488 1486 1483 1478 1476 1475 1476 1477 1479 1480 1482 1484 1486 1488 1490 1492 1493 1493 1494 1495 1495 1495 1496 1496 1496 1497 1497 1497 1496 1496 1495 1495 1494 1494 1493 1492
1472 1463 1463 1466 1464 1464 1466 1469 1474 1476 1479 1471 1472 1473 1476 1478 1478 1479 1480 1482 1485 1487 1489 1490 1491 1491 1492 1493 1493 1493 1493 1494 1494 1494 1494 1494 1494 1493 1493 1492 1492 1491 1491 1489
1484 1471 1469 1479 1467 1465 1467 1467 1470 1477 1474 1469 1471 1472 1474 1476 1476 1477 1479 1480 1482 1484 1486 1487 1489 1489 1490 1490 1491 1491 1491 1492 1492 1492 1491 1491 1491 1490 1490 1489 1488 1488 1487 1486
1487 1482 1492 1478 1459 1459 1463 1465 1465 1466 1466 1467 1468 1470 1473 1474 1475 1476 1477 1478 1480 1482 1484 1485 1486 1487 1488 1488 1488 1488 1489 1489 1489 1489 1489 1488 1488 1487 1487 1486 1485 1485 1484 1483
1491 1491 1485 1470 1461 1460 1465 1471 1465 1465 1467 1468 1470 1472 1475 1475 1476 1476 1476 1477 1479 1481 1482 1483 1484 1485 1485 1486 1486 1486 1487 1487 1487 1486 1486 1485 1484 1484 1484 1483 1482 1482 1480 1479
1487 1489 1492 1477 1461 1456 1461 1476 1467 1465 1467 1468 1470 1478 1478 1476 1476 1476 1477 1477 1479 1480 1481 1481 1482 1483 1484 1484 1484 1484 1484 1484 1484 1484 1483 1482 1482 1481 1481 1480 1479 1479 1478 1476
1486 1488 1483 1467 1460 1458 1477 1479 1468 1466 1467 1468 1469 1472 1474 1475 1475 1475 1476 1477 1478 1478 1479 1479 1480 1482 1482 1482 1482 1482 1482 1482 1482 1481 1481 1480 1480 1479 1478 1477 1477 1476 1475 1473
1485 1489 1486 1464 1462 1468 1472 1466 1466 1466 1467 1467 1469 1470 1472 1473 1474 1474 1475 1476 1476 1477 1477 1478 1478 1479 1479 1480 1480 1481 1480 1479 1479 1479 1479 1478 1478 1477 1476 1475 1474 1473 1471 1470
1477 1479 1468 1463 1463 1464 1464 1465 1465 1466 1467 1467 1468 1470 1471 1473 1473 1474 1475 1475 1476 1476 1476 1476 1477 1477 1477 1478 1478 1478 1478 1477 1477 1477 1476 1476 1475 1474 1473 1472 1471 1470 1469 1467
1472 1469 1466 1464 1463 1463 1463 1464 1465 1465 1466 1466 1467 1469 1470 1471 1472 1473 1474 1474 1475 1475 1475 1475 1476 1476 1476 1476 1476 1476 1476 1475 1475 1474 1474 1473 1472 1472 1471 1469 1468 1467 1466 1464
1473 1469 1467 1466 1465 1464 1464 1464 1464 1465 1465 1466 1467 1468 1469 1470 1471 1472 1472 1473 1474 1473 1474 1474 1474 1474 1474 1475 1474 1474 1473 1473 1473 1472 1472 1471 1470 1469 1468 1467 1466 1465 1463 1462
1474 1469 1469 1468 1465 1464 1464 1464 1465 1465 1466 1466 1466 1467 1469 1469 1471 1471 1471 1472 1472 1472 1473 1473 1473 1473 1473 1473 1472 1472 1471 1471 1470 1470 1469 1469 1468 1466 1465 1465 1464 1463 1461 1460
1465 1465 1465 1465 1465 1465 1464 1465 1465 1466 1467 1467 1467 1467 1467 1468 1470 1470 1470 1471 1471 1471 1471 1471 1471 1471 1471 1471 1470 1470 1469 1469 1468 1468 1467 1466 1465 1464 1462 1462 1461 1460 1458 1457
1464 1463 1463 1464 1464 1464 1464 1465 1465 1465 1466 1466 1466 1466 1467 1467 1468 1469 1469 1469 1470 1470 1470 1470 1469 1469 1469 1469 1469 1468 1467 1467 1466 1466 1465 1464 1463 1462 1461 1459 1458 1457 1456 1454
1462 1462 1463 1463 1463 1463 1463 1464 1464 1465 1465 1465 1465 1466 1466 1466 1467 1468 1468 1468 1468 1468 1468 1468 1467 1467 1467 1467 1467 1466 1466 1465 1464 1464 1463 1462 1461 1460 1459 1458 1456 1455 1453 1452
1461 1461 1461 1462 1462 1462 1462 1463 1463 1464 1464 1464 1464 1464 1465 1465 1466 1467 1467 1466 1466 1466 1466 1465 1465 1465 1465 1465 1464 1464 1463 1462 1462 1461 1461 1460 1459 1458 1457 1456 1454 1453 1451 1450
1459 1459 1460 1460 1460 1461 1461 1461 1461 1462 1462 1462 1463 1463 1464 1464 1464 1464 1465 1465 1464 1464 1463 1463 1463 1463 1463 1462 1462 1461 1461 1460 1459 1459 1458 1458 1457 1456 1455 1454 1452 1451 1450 1448
1457 1457 1458 1458 1458 1458 1459 1459 1459 1459 1460 1460 1462 1462 1462 1462 1462 1462 1463 1462 1462 1462 1462 1462 1461 1461 1460 1460 1459 1459 1458 1457 1457 1456 1456 1455 1455 1454 1453 1451 1450 1449 1447 1446
1455 1455 1456 1456 1457 1457 1457 1457 1458 1458 1458 1459 1460 1461 1460 1461 1461 1461 1461 1461 1460 1460 1460 1460 1460 1459 1458 1457 1457 1456 1455 1454 1454 1454 1453 1453 1452 1452 1451 1449 1448 1447 1445 1444
1453 1454 1454 1454 1455 1455 1455 1456 1457 1457 1457 1458 1457 1458 1459 1459 1459 1459 1459 1459 1459 1458 1458 1458 1458 1457 1456 1454 1454 1453 1452 1452 1451 1451 1451 1450 1450 1449 1448 1447 1446 1445 1444 1442
1451 1452 1452 1452 1452 1453 1453 1454 1454 1455 1456 1456 1456 1456 1457 1457 1457 1457 1457 1457 1457 1457 1457 1457 1456 1455 1453 1452 1451 1451 1450 1450 1449 1449 1449 1448 1447 1447 1446 1445 1444 1443 1442 1441
1450 1450 1450 1450 1450 1451 1451 1451 1452 1452 1453 1453 1454 1455 1455 1455 1455 1455 1455 1455 1455 1455 1454 1454 1453 1452 1451 1450 1449 1449 1449 1448 1448 1447 1447 1446 1446 1445 1444 1443 1443 1442 1441 1440
1449 1449 1448 1448 1448 1448 1449 1449 1450 1450 1450 1451 1452 1453 1453 1454 1454 1453 1453 1453 1452 1452 1451 1451 1450 1449 1449 1448 1448 1447 1447 1447 1446 1445 1445 1445 1444 1443 1443 1442 1441 1440 1439 1438
1447 1447 1447 1447 1447 1447 1447 1447 1448 1448 1448 1448 1449 1450 1450 1451 1451 1451 1451 1451 1450 1450 1449 1449 1448 1447 1447 1446 1446 1446 1445 1445 1444 1444 1443 1443 1442 1442 1441 1440 1439 1438 1437 1436
1445 1445 1445 1445 1445 1445 1445 1445 1445 1446 1446 1446 1446 1447 1448 1448 1448 1448 1448 1449 1449 1448 1447 1447 1446 1446 1445 1445 1444 1444 1443 1443 1442 1442 1442 1441 1440 1439 1439 1438 1437 1436 1435 1434
1445 1444 1444 1444 1444 1444 1444 1443 1443 1443 1444 1444 1445 1445 1446 1446 1446 1446 1447 1447 1447 1446 1446 1445 1445 1445 1444 1443 1443 1442 1442 1441 1441 1440 1440 1439 1438 1437 1436 1435 1434 1433 1432 1431
1444 1444 1443 1443 1443 1443 1443 1443 1442 1443 1443 1443 1444 1444 1444 1445 1445 1445 1446 1446 1445 1445 1445 1444 1444 1443 1443 1442 1441 1441 1440 1439 1439 1438 1437 1437 1436 1435 1434 1433 1432 1431 1430 1429